#timestamp,LO_Frequency,Hit,StdDev 
1556247615.2,286047000.2,N
1556247635.0,286047002.3,N
1556247635.9,286047002.3,N
1556247655.8,286047000.4,N
1556247675.6,286047002.4,N
1556247695.5,286047002.2,N
1556247715.3,286047001.1,N
1556247735.1,286047000.7,N
1556247755.9,286046999.8,N
1556247775.7,286046999.9,N
1556247795.5,286047000.7,N
1556247815.4,286046996.5,N
1556247835.2,286046996.7,N
1556247855.1,286046999.6,N
1556247856.0,286046999.6,N
1556247875.8,286047001.1,N
1556247895.6,286046996.9,N
1556247915.5,286046998.9,N
1556247935.3,286046996.7,N
1556247955.1,286046999.4,N
1556247975.9,286046998.2,N
1556247995.7,286047000.1,N
1556248015.6,286046997.4,N
1556248035.4,286046996.7,N
1556248055.2,286046998.0,N
1556248075.1,286046997.4,N
1556248076.0,286046997.4,N
1556248095.8,286046995.1,N
1556248115.6,286046993.7,N
1556248135.5,286046993.3,N
1556248155.3,286046995.2,N
1556248175.2,286046999.6,N
1556248195.9,286046995.3,N
1556248215.7,286046998.0,N
1556248235.6,286046999.6,N
1556248255.4,286046996.7,N
1556248275.2,286046998.8,N
1556248295.1,286047002.6,N
1556248296.0,286047002.6,N
1556248315.8,286047000.3,N
1556248335.7,286046998.5,N
1556248355.5,286046994.9,N
1556248375.3,286046995.0,N
1556248395.2,286046995.6,N
1556248415.9,286046997.7,N
1556248435.7,286046997.0,N
1556248455.6,286047002.5,N
1556248475.4,286047003.9,N
1556248495.2,286047004.4,N
1556248515.1,286047001.6,N
1556248516.0,286047001.6,N
1556248535.8,286047001.4,N
1556248555.7,286047004.2,N
1556248575.5,286047000.4,N
1556248595.3,286046999.8,N
1556248615.2,286046998.9,N
1556248635.0,286046997.9,N
1556248635.9,286046997.9,N
1556248655.8,286046997.4,N
1556248675.6,286046996.9,N
1556248695.4,286046997.1,N
1556248715.3,286046998.7,N
1556248735.1,286047000.6,N
1556248755.8,286047002.4,N
1556248775.7,286047001.8,N
1556248795.5,286047002.0,N
1556248815.4,286047006.0,N
1556248835.2,286047003.1,N
1556248855.0,286047005.6,N
1556248855.9,286047005.6,N
1556248875.8,286047005.1,N
1556248895.6,286047006.9,N
1556248915.4,286047004.7,N
1556248935.3,286047006.4,N
1556248955.1,286047004.7,N
1556248975.9,286047007.5,N
1556248995.7,286047009.1,N
1556249015.5,286047006.3,N
1556249035.4,286047005.3,N
1556249055.2,286047003.3,N
1556249075.0,286047003.7,N
1556249075.9,286047003.7,N
1556249095.8,286047004.2,N
1556249115.6,286047003.5,N
1556249135.5,286047003.4,N
1556249155.3,286047005.7,N
1556249175.1,286047003.2,N
1556249195.9,286047002.9,N
1556249215.7,286047003.4,N
1556249235.6,286047002.2,N
1556249255.4,286047001.4,N
1556249275.2,286047003.7,N
1556249295.1,286047004.2,N
1556249296.0,286047004.2,N
1556249315.8,286047001.7,N
1556249335.6,286047003.7,N
1556249355.5,286047003.6,N
1556249375.3,286047001.4,N
1556249395.2,286047001.3,N
1556249415.9,286047000.0,N
1556249435.7,286047002.7,N
1556249455.6,286047002.2,N
1556249475.4,286046999.7,N
1556249495.2,286046999.1,N
1556249515.1,286046997.0,N
1556249516.0,286046997.0,N
1556249535.8,286046999.5,N
1556249555.7,286046996.5,N
1556249575.5,286046997.1,N
1556249595.3,286046997.4,N
1556249615.2,286046998.0,N
1556249635.0,286046995.4,N
1556249635.9,286046995.4,N
1556249655.8,286046995.7,N
1556249675.6,286046996.4,N
1556249695.4,286046994.0,N
1556249715.3,286046994.0,N
1556249735.1,286046996.3,N
1556249755.8,286046996.3,N
1556249775.7,286046996.3,N
1556249795.5,286046994.5,N
1556249815.3,286046993.4,N
1556249835.2,286046995.3,N
1556249855.0,286046998.9,N
1556249855.9,286046998.9,N
1556249875.8,286046999.1,N
1556249895.6,286046997.4,N
1556249915.4,286046995.4,N
1556249935.3,286046996.1,N
1556249955.1,286046996.4,N
1556249975.9,286046995.1,N
1556249995.7,286046999.5,N
1556250015.5,286046999.6,N
1556250035.4,286046996.8,N
1556250055.2,286046996.9,N
1556250075.0,286046998.3,N
1556250075.9,286046998.3,N
1556250095.8,286046996.8,N
1556250115.6,286046997.2,N
1556250135.5,286046996.5,N
1556250155.3,286046997.1,N
1556250175.1,286046996.6,N
1556250195.9,286046999.5,N
1556250215.7,286046997.9,N
1556250235.5,286046995.0,Y
1556250255.4,286047000.3,P
1556250275.2,286046998.7,N
1556250295.1,286046998.6,N
1556250296.0,286046998.6,N
1556250315.8,286047000.4,N
1556250335.6,286047000.4,N
1556250355.5,286046998.3,N
1556250375.3,286046998.8,N
1556250395.1,286046999.2,N
1556250415.9,286046996.5,Y
1556250435.7,286046997.4,P
1556250455.6,286046996.6,P
1556250475.4,286046998.3,N
1556250495.2,286046997.1,Y
1556250515.1,286047002.5,P
1556250516.0,286047002.5,N
1556250535.8,286047003.7,N
1556250555.7,286047001.4,N
1556250575.5,286047003.8,N
1556250595.3,286047000.7,N
1556250615.2,286046998.2,N
1556250635.0,286047000.4,N
1556250635.9,286047000.4,N
1556250655.8,286047002.0,N
1556250675.6,286047000.2,N
1556250695.4,286047000.9,N
1556250715.3,286046998.4,N
1556250735.1,286046998.2,N
1556250755.8,286047000.5,N
1556250775.7,286047002.8,N
1556250795.5,286047002.3,N
1556250815.3,286047002.5,N
1556250835.2,286046999.0,N
1556250855.0,286046998.8,N
1556250855.9,286046998.8,N
1556250875.8,286046998.3,N
1556250895.6,286047000.7,N
1556250915.4,286047000.9,N
1556250935.3,286047001.0,N
1556250955.1,286046999.8,N
1556250975.8,286047001.0,N
1556250995.7,286046999.2,N
1556251015.5,286047000.3,N
1556251035.4,286046998.6,N
1556251055.2,286046998.2,N
1556251075.0,286046998.1,N
1556251075.9,286046998.1,N
1556251095.8,286047002.8,N
1556251115.6,286047002.2,N
1556251135.4,286047001.4,N
1556251155.3,286047005.0,Y
1556251175.1,286047003.2,P
1556251195.9,286047002.9,N
